Regional Weather Roundup
Issued by NWS Little Rock, AR

Home | Current Version | Previous Version | Text Only | Print | Product List | Glossary Off
Versions: 1 2 3 4 5 6 7 8 9 10 11 12 13 14 15 16 17 18 19 20 21 22 23 24 25 26 27 28 29 30 31

000
ASUS44 KLZK 170205
RWRLZK

WEATHER ROUNDUP FOR ARKANSAS
NATIONAL WEATHER SERVICE LITTLE ROCK AR
900 PM CDT MON OCT 16 2017

NOTE: "FAIR" INDICATES FEW OR NO CLOUDS BELOW 12,000 FEET WITH NO
SIGNIFICANT WEATHER AND/OR OBSTRUCTIONS TO VISIBILITY.

ARZ001-003-010-029-170300-
NORTHWEST ARKANSAS

CITY           SKY/WX    TMP DP  RH WIND       PRES   REMARKS
FAYETTEVILLE   CLEAR     46  44  93 CALM      30.31S
FORT SMITH     CLEAR     56  46  69 CALM      30.30R
HARRISON       CLEAR     49  38  65 CALM      30.32S
BENTONVILLE    CLEAR     53  40  61 CALM      30.33R
ROGERS         CLEAR     51  41  68 CALM      30.32R
SILOAM SPGS    CLEAR     52  40  63 CALM      30.31S
HIGHFILL       CLEAR     49  41  74 CALM      30.31S
SPRINGDALE     CLEAR     52  43  71 CALM      30.32S
$$

ARZ004-005-016-170300-
NORTH CENTRAL ARKANSAS

CITY           SKY/WX    TMP DP  RH WIND       PRES   REMARKS
BATESVILLE     CLEAR     51  41  68 CALM      30.32R
FLIPPIN        CLEAR     51  42  71 CALM      30.31S
MTN HOME       CLEAR     52  37  56 CALM      30.30S
$$

ARZ040-041-170300-
WEST CENTRAL ARKANSAS

CITY           SKY/WX    TMP DP  RH WIND       PRES   REMARKS
MENA           CLEAR     50  43  76 CALM      30.31S
MOUNT IDA      CLEAR     50  44  80 CALM      30.28
$$

ARZ009-017-025-026-028-170300-
NORTHEAST ARKANSAS

CITY           SKY/WX    TMP DP  RH WIND       PRES   REMARKS
CORNING        FAIR      54  46  76 CALM      30.32R
JONESBORO      CLEAR     52  43  71 CALM      30.31S
NEWPORT        CLEAR     50  43  77 E7        30.32R
WALNUT RIDGE   CLEAR     53  40  61 SE5       30.32R
BLYTHEVILLE    CLEAR     51  43  74 NE5       30.31S
$$

ARZ022-023-033-042-044-170300-
CENTRAL ARKANSAS

CITY           SKY/WX    TMP DP  RH WIND       PRES   REMARKS
LITTLE ROCK    CLEAR     55  43  63 CALM      30.31R
N LITTLE ROCK    N/A     56  41  57 CALM      30.33R
JACKSONVILLE   CLEAR     49  44  82 CALM      30.30S
SEARCY         CLEAR     48  45  89 CALM      30.31S
HOT SPRINGS    CLEAR     55  42  61 CALM      30.30R
RUSSELLVILLE   CLEAR     50  45  83 CALM      30.30R
CLINTON        FAIR      46  45  93 CALM      30.32S
$$

ARZ036-170300-
EAST ARKANSAS

CITY           SKY/WX    TMP DP  RH WIND       PRES   REMARKS
WEST MEMPHIS   CLEAR     54  41  61 NE3       30.29S
$$

ARZ050-053-066-070-073-170300-
SOUTHWEST ARKANSAS

CITY           SKY/WX    TMP DP  RH WIND       PRES   REMARKS
ARKADELPHIA    FAIR      48  45  89 CALM      30.31R
CAMDEN         PTCLDY    48  43  81 CALM      30.29R
TEXARKANA      CLEAR     54  42  64 E3        30.29R
EL DORADO      CLEAR     50  42  74 N5        30.29R
$$

ARZ056-057-069-170300-
SOUTHEAST ARKANSAS

CITY           SKY/WX    TMP DP  RH WIND       PRES   REMARKS
PINE BLUFF     CLEAR     56  41  57 N6        30.29S
STUTTGART      CLEAR     51  42  71 N9        30.30S
MONTICELLO     CLEAR     54  42  64 VRB3      30.28S

$$






USA.gov is the U.S. government's official web portal to all federal, state and local government web resources and services.